Showing default

NOAA 3, 6920

Orbit data source: Space-Track

NOAA 3, 6920 is a payload satellite owned by NOAA (US) in SSO that was launched on Tue, 06 Nov 1973 UTC via a DELTA 0300 launch vehicle from the Air Force Western Test Range (AFWTR). Payloads include a variety of satellites, spacecraft, and rockets equipped with specific instruments for various scientific and technological missions. These include communications satellites like Starlink; space stations such as the ISS; scientific satellites like the Hubble; Earth observation satellites from companies like Planet Labs, Umbra, and HawkEye 360; GPS; miniature CubeSats for education and research; and military/defense satellites.

Loading next visibility...
NOAA 3 details
Identifier
6920, 1973-086A
Orbit
SSO
Last TLE update21 hours ago
Origin
Flag of USNOAA (US)
ManufacturerRCA/East Windsor
MissionNon-operational Civil Weather
Bus & MotorTIROS M, Unknown motor
Mass340 kg wet, 340 kg dry
Launch date (UTC)
1973-11-06 (51 years ago)
Launch vehicle
DELTA 0300
Launch site
Air Force Western Test Range (AFWTR)
Object type
Payload
Rocket body
Debris
Shape & HBRHex Poly + 3 Pan, 1.25 m
Radar Cross Section1.292 m², Large (>1 m²)

Expand to show TLE details & history

TLE from 21 hours ago
0 NOAA 3
1 06920U 73086A   24360.60551356 -.00000007  00000-0  29319-3 0  9992
2 06920 102.2868 358.3249 0006502  34.1198  74.9825 12.40376344315120
Epoch: 2024-12-25T14:31Z
Definitive object data (Epoch: 2024-12-25T14:31:56.371Z)
Latitude67.43271°
Longitude-102.8239°
Altitude1,515.161 km
Speed7.114 km/s
True Right ascension13h 59m 01s
True Declination67° 19' 20"
Sunlit
Object was in daylight at TLE epoch
Visualization TLE readout
Latitude75.22833°
Longitude-78.08493°
Altitude1,515.597 km
Speed7.115 km/s
Apparent Right ascension21h 30m 10s
Apparent Declination37° 59' 13"
Sunlit
Object is in daylight
Visualization observer readout
Local Sidereal Time11:07:25
Azimuth19.176° NNE
Elevation-8.973°
Doppler factor1
Orbital elements
Apogee altitude1,507.724 km
Perigee altitude1,497.476 km
Semi-major axis7,880.737 km
Eccentricity0.0006502
Inclination102.2868°
RAAN358.3249°
Arg. of periapsis34.1198°
True anomaly75.05448°
Mean anomaly74.9825°
Eccentric anomaly75.01849°
Mean motion3.10237 °/min
BSTAR0.00029319
Orbital period116.04 mins
Loading maneuver chart data...
Loading historical data...
Loading historical data...
Loading historical data...
Loading historical data...
Loading historical data...
Loading historical data...
Loading historical data...

NOAA 3 Visibility forecast

Observer location: undefined°, undefined

Span
Click to sort rows by Start time (UTC) header in descending order
Start Az.
Max El. time (UTC)
Max El. Az.
Max El.
End time (UTC)
End Az.
14 mins2024-12-26 11:53:00.912Z37.635° NE2024-12-26 12:00:00.912Z94.874° ESE28.087°2024-12-26 12:07:00.912Z155.536° SSE
14 mins2024-12-26 13:48:00.912Z6.587° NNE2024-12-26 13:54:00.912Z304.985° NW40.054°2024-12-26 14:02:00.912Z221.037° SW
5 mins2024-12-26 15:44:00.912Z333.776° NNW2024-12-26 15:46:00.912Z319.198° NNW12.937°2024-12-26 15:49:00.912Z297.243° NW
14 mins2024-12-26 22:59:00.912Z130.194° SE2024-12-26 23:06:00.912Z53.3° ENE37.246°2024-12-26 23:13:00.912Z353.091° N
14 mins2024-12-27 00:53:00.912Z199.909° SSW2024-12-27 00:59:00.912Z253.476° W31.378°2024-12-27 01:07:00.912Z325.659° NNW
7 mins2024-12-27 11:11:00.912Z66.691° ENE2024-12-27 11:14:00.912Z89.383° E14.756°2024-12-27 11:18:00.912Z119.106° SE
|